BREEZE-M R/B, 42909

Orbit data source: Space-Track

BREEZE-M R/B, 42909 is space debris in GEO originally from a launch on Wed, 16 Aug 2017 UTC launched from the Tyuratam Missile And Space Complex (TTMTR). Debris objects in space refer to the collection of defunct objects orbiting the Earth. Examples of debris include non-operational satellites, rocket bodies, and fragments generated from explosions, collisions, or faulty payload assembly.

Loading next visibility...
Identifier
42909, 2017-046C
Orbit
GEO
Last TLE update
23 hours ago
Origin
Manufacturer
Khrunichev
Mission
Spacecraft
Bus & Motor
BRIZ, Unknown motor
Mass
~1,600 kg wet, 1,600 kg dry
Launch date (UTC)
2017-08-16 (8 years ago)
Launch vehicle
Unknown
Launch site
Tyuratam Missile And Space Complex (TTMTR)
Object type
Payload
Rocket body
Debris
Shape & HBR
Cyl, 4 m
Radar Cross Section
14.451 m²

Expand to show TLE details & history

TLE from 23 hours ago
0 BREEZE-M R/B
1 42909U 17046C   25128.89961624 -.00000143  00000-0  00000-0 0  9994
2 42909   7.5497  72.3661 0744104 151.9604 212.1642  0.90332427 25509
Epoch: 2025-05-08T21:35Z
Definitive object data (Epoch: 2025-05-08T21:35:26.843Z)
Latitude
-0°
Longitude
-118.55889°
Altitude
41,753.055 km
Speed
2.783 km/s
True Right ascension
04h 49m 03s
True Declination
0° 00' 00"
Sunlit
Object was in daylight at TLE epoch
Visualization TLE readout
Latitude
-4.87495°
Longitude
-158.71791°
Altitude
42,115.851 km
Speed
2.761 km/s
Apparent Right ascension
01h 51m 47s
Apparent Declination
-10° 21' 55"
Sunlit
Object is in daylight
Visualization observer readout
Local Sidereal Time
04:54:25
Azimuth
230.536° WSW
Elevation
24.324°
Doppler factor
1
Orbital elements
Apogee altitude
42,190.105 km
Perigee altitude
35,462.727 km
Semi-major axis
45,204.553 km
Eccentricity
0.0744104
Inclination
7.5497°
RAAN
72.3661°
Arg. of periapsis
151.9604°
True anomaly
207.96089°
Mean anomaly
212.1642°
Eccentric anomaly
210.03053°
Mean motion
0.22582 °/min
BSTAR
Unknown
Orbital period
1594.16 mins
Loading historical data...
42909 neighbors
Loading maneuver chart data...
Loading SW <> Apogee altitude chart data...
Loading historical data...
Loading historical data...
Loading historical data...
Loading historical data...
Loading historical data...
Loading historical data...
Loading historical data...
Other satellites on launch #46 in the year 2017 (2017-08-16 UTC)

BREEZE-M R/B Visibility forecast

Observer location: undefined°, undefined°

Span
Click to sort rows by Start time (UTC) header in descending order
Start Az.
Max El. time (UTC)
Max El. Az.
Max El.
End time (UTC)
End Az.
1020 mins2025-05-09 20:43:14.526Z230.524° WSW2025-05-09 20:43:14.526Z230.524° WSW22.38°2025-05-10 13:43:14.526Z251.093° W
|